,,,PA_Meas_PMT16A,,PR_Meas_QMR101_102,,RH_Meas_QMH101,,SR_Meas_QMS101,,TA_Meas_QMH101,,GenWind,,GenWind,
date,time,status,PA,status,PR,status,RH,status,SR,status,TA,status,DirAvg,status,SpdAvg,
2010-05-23, 00:00:04,VALID,1001.3,VALID,0,VALID,94.1266,VALID,0,VALID,24.1891,VALID,173,VALID,0.820313,
2010-05-23, 00:01:04,VALID,1001.28,VALID,0,VALID,94.1266,VALID,0,VALID,24.1891,VALID,167,VALID,0.574219,
2010-05-23, 00:02:04,VALID,1001.28,VALID,0,VALID,94.119,VALID,0,VALID,24.2086,VALID,143,VALID,0.691797,
2010-05-23, 00:03:04,VALID,1001.29,VALID,0,VALID,94.1114,VALID,0,VALID,24.2067,VALID,127,VALID,0.681641,
2010-05-23, 00:04:04,VALID,1001.28,VALID,0,VALID,94.1343,VALID,0,VALID,24.2263,VALID,115,VALID,0.487109,
2010-05-23, 00:05:04,VALID,1001.29,VALID,0,VALID,94.1114,VALID,0,VALID,24.2458,VALID,114,VALID,0.353125,
2010-05-23, 00:06:04,VALID,1001.25,VALID,0,VALID,94.1266,VALID,0,VALID,24.2458,VALID,114,VALID,0.133594,
2010-05-23, 00:07:04,VALID,1001.25,VALID,0,VALID,94.1114,VALID,0,VALID,24.2458,VALID,114,VALID,0.424609,
2010-05-23, 00:08:04,VALID,1001.21,VALID,0,VALID,94.1037,VALID,0,VALID,24.2671,VALID,113,VALID,0.665234,
2010-05-23, 00:09:04,VALID,1001.2,VALID,0,VALID,94.1037,VALID,0,VALID,24.2653,VALID,113,VALID,0.721875,
2010-05-23, 00:10:04,VALID,1001.19,VALID,0,VALID,94.1266,VALID,0,VALID,24.2848,VALID,85,VALID,1.22461,
2010-05-23, 00:11:04,VALID,1001.17,VALID,0,VALID,94.1037,VALID,0.112286,VALID,24.2653,VALID,97,VALID,0.983984,
2010-05-23, 00:12:04,VALID,1001.17,VALID,0,VALID,94.1037,VALID,0,VALID,24.2848,VALID,102,VALID,0.948047,
2010-05-23, 00:13:04,VALID,1001.13,VALID,0,VALID,94.0885,VALID,0,VALID,24.2848,VALID,109,VALID,1.05625,
2010-05-23, 00:14:04,VALID,1001.14,VALID,0,VALID,94.1114,VALID,0,VALID,24.2653,VALID,112,VALID,0.580859,
2010-05-23, 00:15:04,VALID,1001.13,VALID,0,VALID,94.0885,VALID,0,VALID,24.2653,VALID,109,VALID,0.482812,
2010-05-23, 00:16:04,VALID,1001.14,VALID,0,VALID,94.0808,VALID,0,VALID,24.2458,VALID,97,VALID,0.703516,
2010-05-23, 00:17:04,VALID,1001.1,VALID,0,VALID,94.0885,VALID,0,VALID,24.2263,VALID,96,VALID,0.921484,
2010-05-23, 00:18:04,VALID,1001.1,VALID,0,VALID,94.0808,VALID,0,VALID,24.2281,VALID,98,VALID,0.507813,
2010-05-23, 00:19:04,VALID,1001.09,VALID,0,VALID,94.0732,VALID,0,VALID,24.2476,VALID,97,VALID,0.597656,
2010-05-23, 00:20:04,VALID,1001.04,VALID,0,VALID,94.0885,VALID,0,VALID,24.2263,VALID,97,VALID,0.517578,
2010-05-23, 00:21:04,VALID,1001.03,VALID,0,VALID,94.0885,VALID,0,VALID,24.2476,VALID,98,VALID,0.673047,
2010-05-23, 00:22:04,VALID,1001.03,VALID,0,VALID,94.0732,VALID,0,VALID,24.2671,VALID,125,VALID,0.817969,
2010-05-23, 00:23:04,VALID,1001.02,VALID,0,VALID,94.0656,VALID,0,VALID,24.2671,VALID,111,VALID,0.845703,
2010-05-23, 00:24:04,VALID,1000.99,VALID,0,VALID,94.0808,VALID,0,VALID,24.2866,VALID,120,VALID,0.890234,
2010-05-23, 00:25:04,VALID,1000.96,VALID,0,VALID,94.0808,VALID,0,VALID,24.2653,VALID,121,VALID,0.8875,
2010-05-23, 00:26:04,VALID,1000.95,VALID,0,VALID,94.0732,VALID,0,VALID,24.3062,VALID,120,VALID,0.871875,
2010-05-23, 00:27:04,VALID,1000.94,VALID,0,VALID,94.0656,VALID,0,VALID,24.2866,VALID,116,VALID,0.854297,
2010-05-23, 00:28:04,VALID,1000.96,VALID,0,VALID,94.0503,VALID,0,VALID,24.2866,VALID,116,VALID,0.648438,
2010-05-23, 00:29:04,VALID,1000.93,VALID,0,VALID,94.0503,VALID,0,VALID,24.3062,VALID,113,VALID,0.839844,
2010-05-23, 00:30:04,VALID,1000.88,VALID,0,VALID,94.0503,VALID,0,VALID,24.2866,VALID,115,VALID,0.821875,
2010-05-23, 00:31:04,VALID,1000.88,VALID,0,VALID,94.0503,VALID,0,VALID,24.2866,VALID,115,VALID,0.452344,
2010-05-23, 00:32:04,VALID,1000.85,VALID,0,VALID,94.0351,VALID,0,VALID,24.2866,VALID,113,VALID,0.6125,
2010-05-23, 00:33:04,VALID,1000.8,VALID,0,VALID,94.0198,VALID,0,VALID,24.2866,VALID,113,VALID,0.496484,
2010-05-23, 00:34:04,VALID,1000.79,VALID,0,VALID,94.0351,VALID,0,VALID,24.2866,VALID,113,VALID,0.20625,
2010-05-23, 00:35:04,VALID,1000.75,VALID,0,VALID,94.0351,VALID,0,VALID,24.2866,VALID,113,VALID,0.158984,
2010-05-23, 00:36:04,VALID,1000.75,VALID,0,VALID,94.0198,VALID,0,VALID,24.2866,VALID,113,VALID,0.325391,
2010-05-23, 00:37:04,VALID,1000.75,VALID,0,VALID,94.0351,VALID,0,VALID,24.2866,VALID,113,VALID,0.224609,
2010-05-23, 00:38:04,VALID,1000.7,VALID,0,VALID,94.0503,VALID,0,VALID,24.2866,VALID,114,VALID,0.301562,
2010-05-23, 00:39:04,VALID,1000.7,VALID,0,VALID,94.0427,VALID,0,VALID,24.3062,VALID,146,VALID,0.422266,
2010-05-23, 00:40:04,VALID,1000.66,VALID,0,VALID,94.0122,VALID,0,VALID,24.3062,VALID,146,VALID,0.190234,
2010-05-23, 00:41:04,VALID,1000.66,VALID,0,VALID,94.0274,VALID,0,VALID,24.3062,VALID,146,VALID,0.0269531,
2010-05-23, 00:42:04,VALID,1000.63,VALID,0,VALID,94.0198,VALID,0,VALID,24.3257,VALID,146,VALID,0,
2010-05-23, 00:43:04,VALID,1000.63,VALID,0,VALID,94.0351,VALID,0,VALID,24.3257,VALID,146,VALID,0,
2010-05-23, 00:44:04,VALID,1000.64,VALID,0,VALID,94.0274,VALID,0,VALID,24.3062,VALID,146,VALID,0,
2010-05-23, 00:45:04,VALID,1000.64,VALID,0,VALID,94.0351,VALID,0,VALID,24.3062,VALID,146,VALID,0,
2010-05-23, 00:46:04,VALID,1000.64,VALID,0,VALID,94.0503,VALID,0,VALID,24.3257,VALID,146,VALID,0.205859,
2010-05-23, 00:47:04,VALID,1000.61,VALID,0,VALID,94.0503,VALID,0,VALID,24.3062,VALID,129,VALID,0.473047,
2010-05-23, 00:48:04,VALID,1000.67,VALID,0,VALID,94.0351,VALID,0,VALID,24.3257,VALID,103,VALID,0.520703,
2010-05-23, 00:49:04,VALID,1000.63,VALID,0,VALID,94.0351,VALID,0,VALID,24.3452,VALID,103,VALID,0.475781,
2010-05-23, 00:50:04,VALID,1000.66,VALID,0,VALID,94.0427,VALID,0,VALID,24.3647,VALID,103,VALID,0.303906,
2010-05-23, 00:51:04,VALID,1000.64,VALID,0,VALID,94.0198,VALID,0,VALID,24.3842,VALID,103,VALID,0.220313,
2010-05-23, 00:52:04,VALID,1000.61,VALID,0,VALID,94.0351,VALID,0,VALID,24.3647,VALID,103,VALID,0.196094,
2010-05-23, 00:53:04,VALID,1000.59,VALID,0,VALID,94.0122,VALID,0,VALID,24.3647,VALID,123,VALID,0.373828,
2010-05-23, 00:54:04,VALID,1000.58,VALID,0,VALID,94.0045,VALID,0,VALID,24.3629,VALID,123,VALID,0.248437,
2010-05-23, 00:55:04,VALID,1000.57,VALID,0,VALID,94.0045,VALID,0,VALID,24.3647,VALID,123,VALID,0.216406,
2010-05-23, 00:56:04,VALID,1000.57,VALID,0,VALID,94.0122,VALID,0,VALID,24.3842,VALID,128,VALID,0.408984,
2010-05-23, 00:57:04,VALID,1000.56,VALID,0,VALID,94.0045,VALID,0,VALID,24.4037,VALID,135,VALID,0.424219,
2010-05-23, 00:58:04,VALID,1000.51,VALID,0,VALID,94.0045,VALID,0,VALID,24.4037,VALID,142,VALID,0.400391,
2010-05-23, 00:59:04,VALID,1000.51,VALID,0,VALID,93.9969,VALID,0,VALID,24.4037,VALID,142,VALID,0.116406,
2010-05-23, 01:00:04,VALID,1000.52,VALID,0,VALID,93.9893,VALID,0,VALID,24.4233,VALID,142,VALID,0,
2010-05-23, 01:01:04,VALID,1000.5,VALID,0,VALID,93.9969,VALID,0,VALID,24.4446,VALID,142,VALID,0,
2010-05-23, 01:02:04,VALID,1000.49,VALID,0,VALID,93.9893,VALID,0,VALID,24.4233,VALID,142,VALID,0,
2010-05-23, 01:03:04,VALID,1000.47,VALID,0,VALID,93.9969,VALID,0,VALID,24.4037,VALID,142,VALID,0.0269531,
2010-05-23, 01:04:04,VALID,1000.45,VALID,0,VALID,93.9817,VALID,0,VALID,24.4233,VALID,142,VALID,0.247656,
2010-05-23, 01:05:04,VALID,1000.45,VALID,0,VALID,93.974,VALID,0,VALID,24.4037,VALID,142,VALID,0.258203,
2010-05-23, 01:06:04,VALID,1000.45,VALID,0,VALID,93.9817,VALID,0,VALID,24.3842,VALID,142,VALID,0.494141,
2010-05-23, 01:07:04,VALID,1000.44,VALID,0,VALID,93.9664,VALID,0,VALID,24.4037,VALID,142,VALID,0.418359,
2010-05-23, 01:08:04,VALID,1000.41,VALID,0,VALID,93.9588,VALID,0,VALID,24.4037,VALID,142,VALID,0.244922,
2010-05-23, 01:09:04,VALID,1000.41,VALID,0,VALID,93.9664,VALID,0,VALID,24.3842,VALID,142,VALID,0.108203,
2010-05-23, 01:10:04,VALID,1000.38,VALID,0,VALID,93.9511,VALID,0,VALID,24.3842,VALID,142,VALID,0,
2010-05-23, 01:11:04,VALID,1000.34,VALID,0,VALID,93.9511,VALID,0,VALID,24.3629,VALID,142,VALID,0.187891,
2010-05-23, 01:12:04,VALID,1000.32,VALID,0,VALID,93.9359,VALID,0,VALID,24.3629,VALID,142,VALID,0.00585938,
2010-05-23, 01:13:04,VALID,1000.32,VALID,0,VALID,93.9511,VALID,0,VALID,24.3842,VALID,154,VALID,0.328125,
2010-05-23, 01:14:04,VALID,1000.31,VALID,0,VALID,93.9283,VALID,0,VALID,24.3647,VALID,206,VALID,0.678906,
2010-05-23, 01:15:04,VALID,1000.29,VALID,0,VALID,93.9359,VALID,0,VALID,24.3647,VALID,194,VALID,0.595312,
2010-05-23, 01:16:04,VALID,1000.28,VALID,0,VALID,93.9359,VALID,0,VALID,24.3647,VALID,189,VALID,0.726563,
2010-05-23, 01:17:04,VALID,1000.28,VALID,0,VALID,93.8901,VALID,0,VALID,24.3257,VALID,184,VALID,0.501953,
2010-05-23, 01:18:04,VALID,1000.28,VALID,0,VALID,93.9054,VALID,0,VALID,24.3452,VALID,172,VALID,0.814062,
2010-05-23, 01:19:04,VALID,1000.28,VALID,0,VALID,93.9054,VALID,0,VALID,24.3647,VALID,172,VALID,0.819922,
2010-05-23, 01:20:04,VALID,1000.31,VALID,0,VALID,93.9054,VALID,0,VALID,24.3647,VALID,168,VALID,0.474609,
2010-05-23, 01:21:04,VALID,1000.29,VALID,0,VALID,93.852,VALID,0,VALID,24.3257,VALID,160,VALID,0.748438,
2010-05-23, 01:22:04,VALID,1000.25,VALID,0,VALID,93.852,VALID,0,VALID,24.3062,VALID,156,VALID,0.845312,
2010-05-23, 01:23:04,VALID,1000.25,VALID,0,VALID,93.8291,VALID,0,VALID,24.2866,VALID,152,VALID,0.903906,
2010-05-23, 01:24:04,VALID,1000.22,VALID,0,VALID,93.8367,VALID,0,VALID,24.2458,VALID,152,VALID,0.689453,
2010-05-23, 01:25:04,VALID,1000.2,VALID,0,VALID,93.8214,VALID,0,VALID,24.2476,VALID,152,VALID,0.75625,
2010-05-23, 01:26:04,VALID,1000.2,VALID,0,VALID,93.8214,VALID,0,VALID,24.2086,VALID,152,VALID,0.585156,
2010-05-23, 01:27:04,VALID,1000.18,VALID,0,VALID,93.8062,VALID,0,VALID,24.1891,VALID,152,VALID,0.334375,
2010-05-23, 01:28:04,VALID,1000.18,VALID,0,VALID,93.7909,VALID,0,VALID,24.15,VALID,152,VALID,0.394922,
2010-05-23, 01:29:04,VALID,1000.16,VALID,0,VALID,93.7757,VALID,0,VALID,24.111,VALID,152,VALID,0.308203,
2010-05-23, 01:30:04,VALID,1000.18,VALID,0,VALID,93.7909,VALID,0,VALID,24.0915,VALID,152,VALID,0.25,
2010-05-23, 01:31:04,VALID,1000.13,VALID,0,VALID,93.8062,VALID,0,VALID,24.111,VALID,152,VALID,0.227734,
2010-05-23, 01:32:04,VALID,1000.18,VALID,0,VALID,93.7985,VALID,0,VALID,24.1324,VALID,152,VALID,0.239453,
2010-05-23, 01:33:04,VALID,1000.18,VALID,0,VALID,93.8214,VALID,0,VALID,24.0915,VALID,152,VALID,0.227344,
2010-05-23, 01:34:04,VALID,1000.17,VALID,0,VALID,93.8367,VALID,0,VALID,24.0915,VALID,152,VALID,0.248047,
2010-05-23, 01:35:04,VALID,1000.15,VALID,0,VALID,93.852,VALID,0,VALID,24.111,VALID,152,VALID,0.172656,
2010-05-23, 01:36:04,VALID,1000.13,VALID,0,VALID,93.8367,VALID,0,VALID,24.1305,VALID,152,VALID,0,
2010-05-23, 01:37:04,VALID,1000.13,VALID,0,VALID,93.852,VALID,0,VALID,24.1305,VALID,152,VALID,0,
2010-05-23, 01:38:04,VALID,1000.11,VALID,0,VALID,93.8443,VALID,0,VALID,24.111,VALID,117,VALID,0,
2010-05-23, 01:39:04,VALID,1000.1,VALID,0,VALID,93.8291,VALID,0,VALID,24.072,VALID,42,VALID,0,
2010-05-23, 01:40:04,VALID,1000.08,VALID,0,VALID,93.8443,VALID,0,VALID,24.0116,VALID,36,VALID,0,
2010-05-23, 01:41:04,VALID,1000.09,VALID,0,VALID,93.8596,VALID,0,VALID,24.0134,VALID,36,VALID,0,
2010-05-23, 01:42:04,VALID,1000.07,VALID,0,VALID,93.8443,VALID,0,VALID,23.9939,VALID,36,VALID,0,
2010-05-23, 01:43:04,VALID,1000.04,VALID,0,VALID,93.8748,VALID,0,VALID,23.9744,VALID,36,VALID,0,
2010-05-23, 01:44:04,VALID,1000.05,VALID,0,VALID,93.8825,VALID,0,VALID,23.9549,VALID,36,VALID,0,
2010-05-23, 01:45:04,VALID,1000.06,VALID,0,VALID,93.8825,VALID,0,VALID,23.9354,VALID,36,VALID,0,
2010-05-23, 01:46:04,VALID,1000.08,VALID,0,VALID,93.8825,VALID,0,VALID,23.9159,VALID,36,VALID,0,
2010-05-23, 01:47:04,VALID,1000.08,VALID,0,VALID,93.8825,VALID,0,VALID,23.8963,VALID,36,VALID,0,
2010-05-23, 01:48:04,VALID,1000.11,VALID,0,VALID,93.8977,VALID,0,VALID,23.8573,VALID,36,VALID,0,
2010-05-23, 01:49:04,VALID,1000.14,VALID,0,VALID,93.9054,VALID,0,VALID,23.8768,VALID,36,VALID,0,
2010-05-23, 01:50:04,VALID,1000.13,VALID,0,VALID,93.9283,VALID,0,VALID,23.8963,VALID,36,VALID,0,
2010-05-23, 01:51:04,VALID,1000.14,VALID,0,VALID,93.9435,VALID,0,VALID,23.9354,VALID,36,VALID,0,
2010-05-23, 01:52:04,VALID,1000.14,VALID,0,VALID,93.9435,VALID,0,VALID,23.9354,VALID,36,VALID,0,
2010-05-23, 01:53:05,VALID,1000.13,VALID,0,VALID,93.9664,VALID,0,VALID,23.9354,VALID,36,VALID,0,
2010-05-23, 01:54:05,VALID,1000.13,VALID,0,VALID,93.9664,VALID,0,VALID,23.9354,VALID,36,VALID,0,
2010-05-23, 01:55:05,VALID,1000.1,VALID,0,VALID,93.9588,VALID,0,VALID,23.9354,VALID,36,VALID,0,
2010-05-23, 01:56:05,VALID,1000.08,VALID,0,VALID,93.9893,VALID,0,VALID,23.9549,VALID,36,VALID,0,
2010-05-23, 01:57:05,VALID,1000.08,VALID,0,VALID,93.9893,VALID,0,VALID,23.9531,VALID,36,VALID,0,
2010-05-23, 01:58:05,VALID,1000.06,VALID,0,VALID,94.0045,VALID,0,VALID,23.9744,VALID,36,VALID,0,
2010-05-23, 01:59:05,VALID,1000.07,VALID,0,VALID,94.0045,VALID,0,VALID,23.914,VALID,36,VALID,0,
2010-05-23, 02:00:05,VALID,1000.05,VALID,0,VALID,93.9969,VALID,0,VALID,23.914,VALID,36,VALID,0,
2010-05-23, 02:01:05,VALID,1000.05,VALID,0,VALID,94.0198,VALID,0,VALID,23.8945,VALID,36,VALID,0,
2010-05-23, 02:02:05,VALID,1000.02,VALID,0,VALID,94.0122,VALID,0,VALID,23.8963,VALID,36,VALID,0,
2010-05-23, 02:03:05,VALID,1000.03,VALID,0,VALID,94.0274,VALID,0,VALID,23.8573,VALID,36,VALID,0,
2010-05-23, 02:04:05,VALID,1000.05,VALID,0,VALID,94.0198,VALID,0,VALID,23.8573,VALID,36,VALID,0,
2010-05-23, 02:05:05,VALID,1000.05,VALID,0,VALID,94.0122,VALID,0,VALID,23.8378,VALID,36,VALID,0,
2010-05-23, 02:06:05,VALID,1000.03,VALID,0,VALID,94.0351,VALID,0,VALID,23.7988,VALID,56,VALID,0,
2010-05-23, 02:07:05,VALID,1000.01,VALID,0,VALID,94.0656,VALID,0,VALID,23.8183,VALID,76,VALID,0.148828,
2010-05-23, 02:08:05,VALID,1000.02,VALID,0,VALID,94.058,VALID,0,VALID,23.8573,VALID,87,VALID,0.994922,
2010-05-23, 02:09:05,VALID,1000.04,VALID,0,VALID,94.0808,VALID,0,VALID,23.8573,VALID,89,VALID,0.925391,
2010-05-23, 02:10:05,VALID,1000.04,VALID,0,VALID,94.0732,VALID,0,VALID,23.8183,VALID,90,VALID,0.905859,
2010-05-23, 02:11:05,VALID,1000.03,VALID,0,VALID,94.0732,VALID,0,VALID,23.797,VALID,90,VALID,0.722656,
2010-05-23, 02:12:05,VALID,1000.05,VALID,0,VALID,94.0656,VALID,0,VALID,23.7793,VALID,90,VALID,0.496094,
2010-05-23, 02:13:05,VALID,1000.06,VALID,0,VALID,94.0732,VALID,0,VALID,23.7793,VALID,90,VALID,0.394531,
2010-05-23, 02:14:05,VALID,1000.03,VALID,0,VALID,94.0656,VALID,0,VALID,23.7597,VALID,89,VALID,0.372266,
2010-05-23, 02:15:05,VALID,1000.03,VALID,0,VALID,94.0656,VALID,0,VALID,23.7402,VALID,89,VALID,0.364844,
2010-05-23, 02:16:05,VALID,1000.03,VALID,0,VALID,94.0885,VALID,0,VALID,23.7402,VALID,87,VALID,0.517578,
2010-05-23, 02:17:05,VALID,999.991,VALID,0,VALID,94.0885,VALID,0,VALID,23.7189,VALID,75,VALID,0.640625,
2010-05-23, 02:18:05,VALID,999.979,VALID,0,VALID,94.058,VALID,0,VALID,23.7012,VALID,75,VALID,0.482031,
2010-05-23, 02:19:05,VALID,999.966,VALID,0,VALID,94.0732,VALID,0,VALID,23.6214,VALID,75,VALID,0.188281,
2010-05-23, 02:20:05,VALID,999.964,VALID,0,VALID,94.1037,VALID,0,VALID,23.6036,VALID,75,VALID,0,
2010-05-23, 02:21:05,VALID,999.944,VALID,0,VALID,94.1114,VALID,0,VALID,23.6036,VALID,75,VALID,0,
2010-05-23, 02:22:05,VALID,999.903,VALID,0,VALID,94.1037,VALID,0,VALID,23.6427,VALID,75,VALID,0,
2010-05-23, 02:23:05,VALID,999.908,VALID,0,VALID,94.1266,VALID,0,VALID,23.6214,VALID,75,VALID,0,
2010-05-23, 02:24:05,VALID,999.899,VALID,0,VALID,94.1343,VALID,0,VALID,23.6214,VALID,75,VALID,0.0382813,
2010-05-23, 02:25:05,VALID,999.855,VALID,0,VALID,94.1495,VALID,0,VALID,23.6622,VALID,53,VALID,0.662109,
2010-05-23, 02:26:05,VALID,999.826,VALID,0,VALID,94.1648,VALID,0,VALID,23.7597,VALID,44,VALID,0.830469,
2010-05-23, 02:27:05,VALID,999.835,VALID,0,VALID,94.1495,VALID,0,VALID,23.7579,VALID,44,VALID,0.287109,
2010-05-23, 02:28:05,VALID,999.829,VALID,0,VALID,94.1648,VALID,0,VALID,23.7402,VALID,343,VALID,0.541797,
2010-05-23, 02:29:05,VALID,999.816,VALID,0,VALID,94.1419,VALID,0,VALID,23.7597,VALID,343,VALID,0.504687,
2010-05-23, 02:30:05,VALID,999.857,VALID,0,VALID,94.1266,VALID,0,VALID,23.7579,VALID,343,VALID,0.296484,
2010-05-23, 02:31:05,VALID,999.835,VALID,0,VALID,94.1571,VALID,0,VALID,23.7579,VALID,343,VALID,0.275781,
2010-05-23, 02:32:05,VALID,999.836,VALID,0,VALID,94.1495,VALID,0,VALID,23.7793,VALID,343,VALID,0,
2010-05-23, 02:33:05,VALID,999.852,VALID,0,VALID,94.1724,VALID,0,VALID,23.7988,VALID,343,VALID,0,
2010-05-23, 02:34:05,VALID,999.814,VALID,0,VALID,94.1571,VALID,0,VALID,23.7793,VALID,343,VALID,0,
2010-05-23, 02:35:05,VALID,999.823,VALID,0,VALID,94.1571,VALID,0,VALID,23.7793,VALID,343,VALID,0,
2010-05-23, 02:36:05,VALID,999.809,VALID,0,VALID,94.1419,VALID,0,VALID,23.7207,VALID,343,VALID,0,
2010-05-23, 02:37:05,VALID,999.814,VALID,0,VALID,94.1495,VALID,0,VALID,23.6817,VALID,343,VALID,0,
2010-05-23, 02:38:05,VALID,999.814,VALID,0,VALID,94.1419,VALID,0,VALID,23.6622,VALID,343,VALID,0,
2010-05-23, 02:39:05,VALID,999.799,VALID,0,VALID,94.1724,VALID,0,VALID,23.6427,VALID,343,VALID,0,
2010-05-23, 02:40:05,VALID,999.818,VALID,0,VALID,94.1495,VALID,0,VALID,23.6019,VALID,343,VALID,0,
2010-05-23, 02:41:05,VALID,999.806,VALID,0,VALID,94.18,VALID,0,VALID,23.6036,VALID,343,VALID,0,
2010-05-23, 02:42:05,VALID,999.795,VALID,0,VALID,94.18,VALID,0,VALID,23.5841,VALID,343,VALID,0,
2010-05-23, 02:43:05,VALID,999.793,VALID,0,VALID,94.1648,VALID,0,VALID,23.5646,VALID,343,VALID,0,
2010-05-23, 02:44:05,VALID,999.776,VALID,0,VALID,94.1877,VALID,0,VALID,23.6036,VALID,343,VALID,0,
2010-05-23, 02:45:05,VALID,999.731,VALID,0,VALID,94.2182,VALID,0,VALID,23.6427,VALID,343,VALID,0,
2010-05-23, 02:46:05,VALID,999.73,VALID,0,VALID,94.1877,VALID,0,VALID,23.6817,VALID,343,VALID,0,
2010-05-23, 02:47:05,VALID,999.676,VALID,0,VALID,94.2029,VALID,0,VALID,23.7207,VALID,343,VALID,0,
2010-05-23, 02:48:05,VALID,999.664,VALID,0,VALID,94.2105,VALID,0,VALID,23.7402,VALID,343,VALID,0,
2010-05-23, 02:49:05,VALID,999.655,VALID,0,VALID,94.18,VALID,0,VALID,23.7207,VALID,343,VALID,0,
2010-05-23, 02:50:05,VALID,999.624,VALID,0,VALID,94.2029,VALID,0,VALID,23.7207,VALID,343,VALID,0,
2010-05-23, 02:51:05,VALID,999.636,VALID,0,VALID,94.2029,VALID,0,VALID,23.7207,VALID,343,VALID,0,
2010-05-23, 02:52:05,VALID,999.629,VALID,0,VALID,94.18,VALID,0,VALID,23.6817,VALID,343,VALID,0,
2010-05-23, 02:53:05,VALID,999.631,VALID,0,VALID,94.2029,VALID,0,VALID,23.6622,VALID,343,VALID,0,
2010-05-23, 02:54:05,VALID,999.66,VALID,0,VALID,94.2258,VALID,0,VALID,23.6817,VALID,343,VALID,0,
2010-05-23, 02:55:05,VALID,999.665,VALID,0,VALID,94.1877,VALID,0,VALID,23.6799,VALID,343,VALID,0,
2010-05-23, 02:56:05,VALID,999.701,VALID,0,VALID,94.2182,VALID,0,VALID,23.7207,VALID,343,VALID,0,
2010-05-23, 02:57:05,VALID,999.716,VALID,0,VALID,94.2105,VALID,0,VALID,23.7012,VALID,343,VALID,0,
2010-05-23, 02:58:05,VALID,999.692,VALID,0,VALID,94.2029,VALID,0,VALID,23.6817,VALID,343,VALID,0,
2010-05-23, 02:59:05,VALID,999.671,VALID,0,VALID,94.2258,VALID,0,VALID,23.6622,VALID,343,VALID,0,
2010-05-23, 03:00:05,VALID,999.699,VALID,0,VALID,94.2182,VALID,0,VALID,23.6409,VALID,343,VALID,0,
2010-05-23, 03:01:05,VALID,999.67,VALID,0,VALID,94.2182,VALID,0,VALID,23.6604,VALID,343,VALID,0,
2010-05-23, 03:02:05,VALID,999.648,VALID,0,VALID,94.2334,VALID,0,VALID,23.6817,VALID,343,VALID,0,
2010-05-23, 03:03:05,VALID,999.641,VALID,0,VALID,94.2029,VALID,0,VALID,23.6604,VALID,87,VALID,0.496484,
2010-05-23, 03:04:05,VALID,999.623,VALID,0,VALID,94.2258,VALID,0,VALID,23.6622,VALID,92,VALID,0.623438,
2010-05-23, 03:05:05,VALID,999.606,VALID,0,VALID,94.2258,VALID,0,VALID,23.6817,VALID,97,VALID,0.894531,
2010-05-23, 03:06:05,VALID,999.607,VALID,0,VALID,94.2105,VALID,0,VALID,23.7207,VALID,96,VALID,0.762109,
2010-05-23, 03:07:05,VALID,999.56,VALID,0,VALID,94.2334,VALID,0,VALID,23.7597,VALID,92,VALID,0.462109,
2010-05-23, 03:08:05,VALID,999.555,VALID,0,VALID,94.2258,VALID,0,VALID,23.7207,VALID,92,VALID,0.0855469,
2010-05-23, 03:09:05,VALID,999.549,VALID,0,VALID,94.2258,VALID,0,VALID,23.7012,VALID,92,VALID,0.0421875,
2010-05-23, 03:10:05,VALID,999.514,VALID,0,VALID,94.2334,VALID,0,VALID,23.6604,VALID,92,VALID,0,
2010-05-23, 03:11:05,VALID,999.524,VALID,0,VALID,94.2182,VALID,0,VALID,23.7012,VALID,92,VALID,0,
2010-05-23, 03:12:05,VALID,999.501,VALID,0,VALID,94.2411,VALID,0,VALID,23.7402,VALID,92,VALID,0,
2010-05-23, 03:13:05,VALID,999.476,VALID,0,VALID,94.2105,VALID,0,VALID,23.7402,VALID,92,VALID,0,
2010-05-23, 03:14:05,VALID,999.458,VALID,0,VALID,94.2258,VALID,0,VALID,23.7384,VALID,115,VALID,0.69375,
2010-05-23, 03:15:05,VALID,999.459,VALID,0,VALID,94.2334,VALID,0,VALID,23.7793,VALID,87,VALID,0.932031,
2010-05-23, 03:16:05,VALID,999.445,VALID,0,VALID,94.2334,VALID,0,VALID,23.7988,VALID,74,VALID,1.29414,
2010-05-23, 03:17:05,VALID,999.428,VALID,0,VALID,94.2029,VALID,0,VALID,23.7793,VALID,63,VALID,1.37773,
2010-05-23, 03:18:05,VALID,999.443,VALID,0,VALID,94.1648,VALID,0,VALID,23.6817,VALID,27,VALID,0.817578,
2010-05-23, 03:19:05,VALID,999.48,VALID,0,VALID,94.2029,VALID,0,VALID,23.5646,VALID,323,VALID,1.29961,
2010-05-23, 03:20:05,VALID,999.495,VALID,0,VALID,94.2029,VALID,0,VALID,23.6019,VALID,285,VALID,0.857422,
2010-05-23, 03:21:05,VALID,999.524,VALID,0,VALID,94.2258,VALID,0,VALID,23.6604,VALID,286,VALID,0.635547,
2010-05-23, 03:22:05,VALID,999.538,VALID,0,VALID,94.2182,VALID,0,VALID,23.7012,VALID,272,VALID,0.201953,
2010-05-23, 03:23:05,VALID,999.556,VALID,0,VALID,94.18,VALID,0,VALID,23.6817,VALID,285,VALID,0.541016,
2010-05-23, 03:24:05,VALID,999.582,VALID,0,VALID,94.2029,VALID,0,VALID,23.6604,VALID,337,VALID,0.422656,
2010-05-23, 03:25:05,VALID,999.596,VALID,0,VALID,94.2182,VALID,0,VALID,23.7012,VALID,334,VALID,1.11094,
2010-05-23, 03:26:05,VALID,999.609,VALID,0,VALID,94.2182,VALID,0,VALID,23.7207,VALID,334,VALID,0.946094,
2010-05-23, 03:27:05,VALID,999.635,VALID,0,VALID,94.2182,VALID,0,VALID,23.7597,VALID,343,VALID,0.83125,
2010-05-23, 03:28:05,VALID,999.589,VALID,0,VALID,94.2105,VALID,0,VALID,23.7189,VALID,26,VALID,1.24023,
2010-05-23, 03:29:05,VALID,999.59,VALID,0,VALID,94.2258,VALID,0,VALID,23.7402,VALID,25,VALID,1.775,
2010-05-23, 03:30:05,VALID,999.62,VALID,0,VALID,94.2029,VALID,0,VALID,23.7597,VALID,21,VALID,1.29023,
2010-05-23, 03:31:05,VALID,999.629,VALID,0,VALID,94.2258,VALID,0,VALID,23.7793,VALID,18,VALID,1.0082,
2010-05-23, 03:32:05,VALID,999.634,VALID,0,VALID,94.1877,VALID,0,VALID,23.7384,VALID,358,VALID,1.24766,
2010-05-23, 03:33:05,VALID,999.657,VALID,0,VALID,94.2182,VALID,0,VALID,23.7793,VALID,358,VALID,1,
2010-05-23, 03:34:05,VALID,999.662,VALID,0,VALID,94.1953,VALID,0,VALID,23.7988,VALID,15,VALID,0.721875,
2010-05-23, 03:35:05,VALID,999.68,VALID,0,VALID,94.1724,VALID,0,VALID,23.797,VALID,39,VALID,0.661328,
2010-05-23, 03:36:05,VALID,999.688,VALID,0,VALID,94.1877,VALID,0,VALID,23.797,VALID,43,VALID,0.725781,
2010-05-23, 03:37:05,VALID,999.739,VALID,0,VALID,94.1724,VALID,0,VALID,23.7579,VALID,37,VALID,0.762891,
2010-05-23, 03:38:05,VALID,999.739,VALID,0,VALID,94.18,VALID,0,VALID,23.7597,VALID,32,VALID,1.05391,
2010-05-23, 03:39:05,VALID,999.746,VALID,0,VALID,94.1571,VALID,0,VALID,23.7793,VALID,52,VALID,1.09687,
2010-05-23, 03:40:05,VALID,999.744,VALID,0,VALID,94.1495,VALID,0,VALID,23.7793,VALID,70,VALID,1.29609,
2010-05-23, 03:41:05,VALID,999.731,VALID,0,VALID,94.1648,VALID,0,VALID,23.797,VALID,66,VALID,1.06758,
2010-05-23, 03:42:05,VALID,999.729,VALID,0,VALID,94.1571,VALID,0,VALID,23.7775,VALID,36,VALID,0.597656,
2010-05-23, 03:43:05,VALID,999.751,VALID,0,VALID,94.1419,VALID,0,VALID,23.7793,VALID,36,VALID,0.155078,
2010-05-23, 03:44:05,VALID,999.748,VALID,0,VALID,94.1571,VALID,0,VALID,23.7793,VALID,36,VALID,0.258203,
2010-05-23, 03:45:05,VALID,999.769,VALID,0,VALID,94.1343,VALID,0,VALID,23.7793,VALID,36,VALID,0,
2010-05-23, 03:46:05,VALID,999.77,VALID,0,VALID,94.1114,VALID,0,VALID,23.7597,VALID,37,VALID,0,
2010-05-23, 03:47:05,VALID,999.783,VALID,0,VALID,94.119,VALID,0,VALID,23.7402,VALID,95,VALID,0.498047,
2010-05-23, 03:48:05,VALID,999.809,VALID,0,VALID,94.1266,VALID,0,VALID,23.7207,VALID,126,VALID,0.313281,
2010-05-23, 03:49:05,VALID,999.832,VALID,0,VALID,94.1266,VALID,0,VALID,23.7207,VALID,126,VALID,0.200391,
2010-05-23, 03:50:05,VALID,999.83,VALID,0,VALID,94.1266,VALID,0,VALID,23.7189,VALID,126,VALID,0.114063,